Location: Seattle
(47.6064°N, 122.3308°W)
Time: 03:22:34
(UTC-08:00)

Explorer 11/Cluster Stage 4 - Visible Passes

Search period start: 30 November 2020 00:00
Search period end: 10 December 2020 00:00
Orbit: 467 x 1258 km, 28.8° (Epoch: 29 November)

Date Brightness Start Highest point End Pass type
(mag) Time Alt. Az. Time Alt. Az. Time Alt. Az.
02 Dec 9.4 19:26:25 10° S 19:27:48 11° S 19:27:48 11° S visible
03 Dec 9.3 19:14:10 10° S 19:17:20 13° SSE 19:17:36 13° SSE visible
04 Dec 9.2 19:02:16 10° SSW 19:06:08 14° SSE 19:07:24 14° SSE visible
04 Dec 9.7 20:49:22 10° SW 20:49:31 10° SW 20:49:31 10° SW visible
05 Dec 9.2 18:50:33 10° SSW 18:54:56 16° SSE 18:57:10 14° SSE visible
05 Dec 9.6 20:37:59 10° SW 20:39:17 13° SSW 20:39:17 13° SSW visible
06 Dec 9.2 18:38:57 10° SSW 18:43:43 17° S 18:46:54 13° SE visible
06 Dec 9.4 20:26:37 10° SW 20:29:01 15° SSW 20:29:01 15° SSW visible
07 Dec 9.3 18:27:28 10° SSW 18:32:28 18° S 18:36:40 12° SE visible
07 Dec 9.3 20:15:20 10° SW 20:18:48 17° SSW 20:18:48 17° SSW visible
08 Dec 9.3 18:16:05 10° SSW 18:21:14 18° S 18:26:22 10° SE visible
08 Dec 9.3 20:04:06 10° SW 20:08:33 18° SSW 20:08:33 18° SSW visible
09 Dec 9.3 18:04:46 10° SW 18:10:00 19° S 18:15:16 10° SE visible
09 Dec 9.2 19:52:57 10° SW 19:57:54 17° S 19:58:21 17° S visible
